User: anonymous   Login
Location: Allie Creek
(37.5926°N, 89.8526°W)
Time: 18:06:34
(UTC+00:00)
Language:

YAOGAN 1 - Orbit

View from above orbital plane
View from above orbital plane
View from above satellite
View from above satellite

Ground track
Ground track

The orbit data is extracted from the following two-line orbital elements,

1 29092U 06015A   24061.81551450  .00001107  00000-0  13639-3 0  9990
2 29092  97.8168  89.3449 0001550  91.0258 269.1135 14.84882405965399
Epoch (UTC): 01 March 2024 19:34:20
Eccentricity: 0.0001550
inclination: 97.8168°
perigee height: 613 km
apogee height: 615 km
right ascension of ascending node: 89.3449°
argument of perigee: 91.0258°
revolutions per day: 14.84882405
mean anomaly at epoch: 269.1135°
orbit number at epoch: 96539

The dashed part of the orbit path shows where the satellite is in the earth's shadow,  

DLR